Location: Alpine
(43.1636°N, 111.0180°W)
Time: 05:50:48
(UTC+00:00)

Tiros 1 despin weight - Pass Details

Date: 02 June 2022
Orbit: 591 x 639 km, 48.2° (Epoch: 30 June)

Event Time Altitude Azimuth Distance (km) Brightness Sun altitude
Rises 01:28:57 0° 278° (W) 2,886 ? 13.8°
Reaches altitude 10° 01:31:22 10° 285° (WNW) 1,972 ? 13.3°
Maximum altitude 01:35:42 43° 357° (N) 853 ? 12.6°
Drops below altitude 10° 01:39:58 10° 70° (ENE) 1,943 ? 11.8°
Sets 01:42:20 0° 77° (ENE) 2,839 ? 11.4°
